When you browse on this site, cookies collect data to enhance your experience and personalize the content and advertising you see.
Visit our Privacy Policy to learn more. By continuing to use the site, you agree to this use of cookies and data.
  • In Hungary
  • List of Countries
  • For 7 days
  • Water Temperature
  • Satellite Maps
  • Weather Map
  • News
  • Weather Widgets
  • user-avatar
    Login

    Hourly Weather Zabid

    Today, 18 November, Sunday

    Time Temperature Precipitation Wind Pressure Humidity
    00:00 +29°C° 0 mm 2 mps 753 mmHg 70%
    01:00 +29°C° 0 mm 2 mps 753 mmHg 72%
    02:00 +29°C° 0 mm 2 mps 753 mmHg 73%
    03:00 +29°C° 0 mm 2 mps 752 mmHg 74%
    04:00 +28°C° 0 mm 2 mps 752 mmHg 76%
    05:00 +28°C° 0 mm 2 mps 753 mmHg 78%
    06:00 +28°C° 0 mm 2 mps 753 mmHg 79%
    07:00 +29°C° 0 mm 2 mps 753 mmHg 74%
    08:00 +30°C° 0 mm 2 mps 753 mmHg 68%
    09:00 +31°C° 0 mm 2 mps 753 mmHg 61%
    10:00 +33°C° 0 mm 3 mps 753 mmHg 56%
    11:00 +34°C° 0 mm 3 mps 752 mmHg 52%
    12:00 +36°C° 0 mm 4 mps 752 mmHg 47%
    13:00 +36°C° 0 mm 4 mps 751 mmHg 47%
    14:00 +35°C° 0 mm 5 mps 751 mmHg 48%
    15:00 +35°C° 0 mm 5 mps 750 mmHg 49%
    16:00 +35°C° 0 mm 4 mps 750 mmHg 51%
    17:00 +34°C° 0 mm 4 mps 750 mmHg 53%
    18:00 +33°C° 0 mm 4 mps 750 mmHg 56%
    19:00 +33°C° 0 mm 3 mps 751 mmHg 57%
    20:00 +31°C° 0 mm 3 mps 751 mmHg 58%
    21:00 +31°C° 0 mm 2 mps 752 mmHg 59%
    22:00 +31°C° 0 mm 3 mps 752 mmHg 60%
    23:00 +31°C° 0 mm 3 mps 752 mmHg 61%

    Tomorrow, 19 November, Monday

    Time Temperature Precipitation Wind Pressure Humidity
    00:00 +30°C° 0 mm 3 mps 752 mmHg 62%
    01:00 +30°C° 0 mm 3 mps 752 mmHg 64%
    02:00 +29°C° 0 mm 3 mps 751 mmHg 66%
    03:00 +29°C° 0 mm 3 mps 751 mmHg 67%
    04:00 +29°C° 0 mm 3 mps 751 mmHg 68%
    05:00 +28°C° 0 mm 3 mps 752 mmHg 68%
    06:00 +28°C° 0 mm 3 mps 752 mmHg 68%
    07:00 +29°C° 0 mm 3 mps 752 mmHg 61%
    08:00 +32°C° 0 mm 4 mps 752 mmHg 54%
    09:00 +33°C° 0 mm 4 mps 753 mmHg 47%
    10:00 +34°C° 0 mm 5 mps 752 mmHg 43%
    11:00 +35°C° 0 mm 5 mps 752 mmHg 40%
    12:00 +38°C° 0 mm 6 mps 751 mmHg 36%
    13:00 +38°C° 0 mm 6 mps 751 mmHg 37%
    14:00 +38°C° 0 mm 6 mps 750 mmHg 38%
    15:00 +38°C° 0 mm 6 mps 750 mmHg 39%
    16:00 +36°C° 0 mm 6 mps 750 mmHg 43%
    17:00 +35°C° 0 mm 6 mps 750 mmHg 47%
    18:00 +34°C° 0 mm 5 mps 750 mmHg 51%
    19:00 +33°C° 0 mm 5 mps 751 mmHg 53%
    20:00 +33°C° 0 mm 4 mps 751 mmHg 55%
    21:00 +32°C° 0 mm 4 mps 752 mmHg 57%
    22:00 +31°C° 0 mm 3 mps 752 mmHg 58%
    23:00 +31°C° 0 mm 3 mps 752 mmHg 60%

    Day after tomorrow, 20 November, Tuesday

    Time Temperature Precipitation Wind Pressure Humidity
    00:00 +30°C° 0 mm 3 mps 752 mmHg 61%
    01:00 +30°C° 0 mm 3 mps 751 mmHg 63%
    02:00 +30°C° 0 mm 3 mps 751 mmHg 65%
    03:00 +29°C° 0 mm 3 mps 751 mmHg 67%
    04:00 +29°C° 0 mm 3 mps 751 mmHg 68%
    05:00 +28°C° 0 mm 3 mps 751 mmHg 68%
    06:00 +28°C° 0 mm 3 mps 751 mmHg 69%
    07:00 +30°C° 0 mm 3 mps 752 mmHg 62%
    08:00 +31°C° 0 mm 3 mps 752 mmHg 56%
    09:00 +33°C° 0 mm 4 mps 753 mmHg 49%
    10:00 +34°C° 0 mm 4 mps 752 mmHg 45%
    11:00 +36°C° 0 mm 5 mps 752 mmHg 41%
    12:00 +37°C° 0 mm 5 mps 752 mmHg 38%
    13:00 +37°C° 0 mm 5 mps 751 mmHg 38%
    14:00 +38°C° 0 mm 6 mps 750 mmHg 38%
    15:00 +38°C° 0 mm 6 mps 750 mmHg 39%
    16:00 +36°C° 0 mm 6 mps 750 mmHg 42%
    17:00 +35°C° 0 mm 5 mps 750 mmHg 45%
    18:00 +34°C° 0 mm 5 mps 751 mmHg 49%
    19:00 +33°C° 0.1 mm 4 mps 751 mmHg 50%
    20:00 +33°C° 0.1 mm 4 mps 752 mmHg 52%
    21:00 +32°C° 0.1 mm 4 mps 753 mmHg 54%
    22:00 +31°C° 0 mm 3 mps 752 mmHg 56%
    23:00 +30°C° 0 mm 3 mps 752 mmHg 57%

    21 November, Wednesday

    Time Temperature Precipitation Wind Pressure Humidity
    00:00 +30°C° 0 mm 3 mps 752 mmHg 58%
    01:00 +30°C° 0 mm 3 mps 752 mmHg 60%
    02:00 +29°C° 0 mm 3 mps 751 mmHg 61%
    03:00 +29°C° 0 mm 3 mps 751 mmHg 63%
    04:00 +29°C° 0 mm 3 mps 751 mmHg 64%
    05:00 +28°C° 0 mm 3 mps 751 mmHg 65%
    06:00 +28°C° 0 mm 3 mps 752 mmHg 66%
    07:00 +29°C° 0 mm 3 mps 752 mmHg 60%
    08:00 +31°C° 0 mm 3 mps 752 mmHg 53%
    09:00 +33°C° 0 mm 4 mps 753 mmHg 47%
    10:00 +34°C° 0 mm 4 mps 752 mmHg 43%
    11:00 +36°C° 0 mm 5 mps 752 mmHg 40%
    12:00 +37°C° 0 mm 5 mps 751 mmHg 36%
    13:00 +38°C° 0 mm 6 mps 751 mmHg 37%
    14:00 +38°C° 0 mm 6 mps 750 mmHg 37%
    15:00 +36°C° 0 mm 7 mps 749 mmHg 38%
    16:00 +35°C° 0.1 mm 6 mps 750 mmHg 41%
    17:00 +34°C° 0.1 mm 6 mps 750 mmHg 44%
    18:00 +34°C° 0.1 mm 5 mps 750 mmHg 47%
    19:00 +33°C° 0 mm 5 mps 751 mmHg 48%
    20:00 +33°C° 0 mm 4 mps 752 mmHg 50%
    21:00 +31°C° 0 mm 3 mps 753 mmHg 52%
    22:00 +31°C° 0 mm 3 mps 752 mmHg 53%
    23:00 +30°C° 0 mm 3 mps 752 mmHg 54%

    22 November, Thursday

    Time Temperature Precipitation Wind Pressure Humidity
    00:00 +30°C° 0 mm 3 mps 752 mmHg 55%
    01:00 +30°C° 0 mm 3 mps 752 mmHg 57%
    02:00 +29°C° 0 mm 3 mps 751 mmHg 59%
    03:00 +29°C° 0 mm 3 mps 751 mmHg 60%
    04:00 +28°C° 0 mm 3 mps 751 mmHg 61%
    05:00 +28°C° 0 mm 3 mps 751 mmHg 62%
    06:00 +28°C° 0 mm 3 mps 752 mmHg 63%
    07:00 +29°C° 0 mm 4 mps 752 mmHg 55%
    08:00 +32°C° 0 mm 4 mps 752 mmHg 48%
    09:00 +34°C° 0 mm 4 mps 753 mmHg 41%
    10:00 +35°C° 0 mm 5 mps 752 mmHg 38%
    11:00 +36°C° 0 mm 5 mps 751 mmHg 34%
    12:00 +38°C° 0 mm 6 mps 751 mmHg 30%
    13:00 +38°C° 0 mm 6 mps 750 mmHg 31%
    14:00 +38°C° 0 mm 7 mps 750 mmHg 31%
    15:00 +38°C° 0 mm 7 mps 749 mmHg 32%
    16:00 +36°C° 0 mm 7 mps 749 mmHg 36%
    17:00 +35°C° 0 mm 6 mps 750 mmHg 40%
    18:00 +34°C° 0 mm 6 mps 750 mmHg 44%
    19:00 +33°C° 0 mm 5 mps 751 mmHg 46%
    20:00 +33°C° 0 mm 5 mps 752 mmHg 49%
    21:00 +32°C° 0 mm 5 mps 752 mmHg 51%
    22:00 +32°C° 0 mm 4 mps 752 mmHg 52%
    23:00 +30°C° 0 mm 4 mps 752 mmHg 53%

    23 November, Friday

    Time Temperature Precipitation Wind Pressure Humidity
    00:00 +30°C° 0 mm 3 mps 751 mmHg 54%
    01:00 +29°C° 0 mm 4 mps 751 mmHg 54%
    02:00 +29°C° 0 mm 4 mps 751 mmHg 55%
    03:00 +29°C° 0 mm 4 mps 750 mmHg 55%
    04:00 +28°C° 0 mm 4 mps 751 mmHg 55%
    05:00 +28°C° 0 mm 4 mps 751 mmHg 55%
    06:00 +28°C° 0 mm 4 mps 751 mmHg 55%
    07:00 +29°C° 0 mm 4 mps 752 mmHg 49%
    08:00 +32°C° 0 mm 4 mps 752 mmHg 42%
    09:00 +34°C° 0 mm 5 mps 752 mmHg 35%
    10:00 +35°C° 0 mm 5 mps 752 mmHg 32%
    11:00 +38°C° 0 mm 6 mps 751 mmHg 28%
    12:00 +39°C° 0 mm 6 mps 751 mmHg 25%
    13:00 +39°C° 0 mm 7 mps 750 mmHg 24%
    14:00 +39°C° 0 mm 7 mps 750 mmHg 23%
    15:00 +40°C° 0 mm 8 mps 749 mmHg 23%
    16:00 +38°C° 0 mm 7 mps 749 mmHg 26%
    17:00 +36°C° 0 mm 7 mps 750 mmHg 29%
    18:00 +35°C° 0 mm 6 mps 750 mmHg 32%
    19:00 +34°C° 0 mm 6 mps 751 mmHg 35%
    20:00 +33°C° 0 mm 5 mps 751 mmHg 38%
    21:00 +32°C° 0 mm 5 mps 752 mmHg 40%
    22:00 +32°C° 0 mm 5 mps 751 mmHg 42%
    23:00 +30°C° 0 mm 4 mps 751 mmHg 44%
    Show more